Погода в Ржевском

Россия / Калининградская область     55°04′56″N   21°44′53″E
темп.,
°C
ветер,
м/с
пор.,
м/с
влажн.,
%
обл.,
%
осадки,
мм/ч
давл.,
гПа
погр.,
м
20 мая, пт
пт2023:00+14ююз3568100 0.0 101867
02:00+13ю236698 0.0 101634
05:00+12ююв347296 0.0 101460
08:00+17ююз4776100 0.0 1013250
11:00+20з687499 0.0 1012788
14:00+17з91379100 0.3 1013567
17:00+15зсз71176100 0.0 1013498
20:00+12з41090100 0.0 1012336
21 мая, сб
сб2123:00+10з3898100 0.0 1010203
02:00+9зюз2399100 0.0 100756
05:00+9ююз2398100 0.0 100578
08:00+11вюв2494100 0.1 1002188
11:00+13юз51091100 3.6 999635
14:00+12зюз3898100 4.4 997544
17:00+9зсз121996100 5.7 1001905
20:00+9зсз91594100 9.3 1003779
22 мая, вс
вс2223:00+9зсз71397100 0.8 1004610
02:00+9сз61198100 2.3 1005503
05:00+10сз3799100 0.8 1006356
08:00+11ссв2491100 1.1 1007446
11:00+10св2496100 0.5 1009302
14:00+10в3594100 0.9 1010384
17:00+11всв2487100 0.1 1011534
20:00+11ссз2390100 0.1 101272
23 мая, пн
пн2323:00+7ссз229517 0.0 101433
02:00+7с22935 0.0 101420
05:00+6ссв11905 0.0 101510
08:00+12ююз00745 0.0 1015252
11:00+16сз21565 0.0 10151094
14:00+18в114749 0.0 10142064
17:00+16зюз1268100 0.0 101456
20:00+13юв11735 0.1 101411
24 мая, вт
вт2423:00+10юв337953 0.0 101434
02:00+8юв348357 0.0 101558
05:00+7юв36855 0.0 1015111
08:00+14ююв596830 0.0 1014404
11:00+17ююв7105297 0.0 10141425
14:00+18ююв71051100 0.0 10131513
17:00+18ююв61064100 0.0 1012985
20:00+16ююв51271100 0.0 1012457